Regional Weather Roundup
Issued by NWS Northern Indiana

Home | Current Version | Previous Version | Text Only | Print | Product List | Glossary Off
Versions: 1 2 3 4 5 6 7 8 9 10 11 12 13 14 15 16 17 18 19 20 21 22 23 24 25 26 27 28 29 30 31 32 33 34 35 36 37 38 39 40 41 42 43 44 45 46 47 48 49 50

781
ASUS43 KIWX 232110
RWRIWX

KIWX WEATHER ROUNDUP
NATIONAL WEATHER SERVICE NORTHERN INDIANA
500 PM EDT SAT JUL 23 2016

NOTE: "FAIR" INDICATES FEW OR NO CLOUDS BELOW 12,000 FEET WITH NO
SIGNIFICANT WEATHER AND/OR OBSTRUCTIONS TO VISIBILITY.

* THESE STATIONS ARE NOT UNDER NWS QUALITY CONTROL. THEY ALSO MAY NOT
  REPORT WEATHER SUCH AS PRECIPITATION OR FOG.

INZ001>027-232200-
NORTHERN INDIANA

CITY           SKY/WX    TMP DP  RH WIND       PRES   REMARKS
GARY*          PTSUNNY   91 N/A N/A S5        29.94F
VALPARAISO     PTSUNNY   89  76  65 SW10      29.96F HX 100
MICHIGAN CITY* CLOUDY    86  75  70 N7        29.96S HX  95
LAPORTE*       CLOUDY    89  79  70 SW5       29.96F HX 104
KNOX*          CLOUDY    88  68  51 SW7       29.96F
SOUTH BEND     CLOUDY    90  75  61 W5        29.96F HX 100
ELKHART*       PTSUNNY   91  75  59 SE6       29.97F HX 102
MONTICELLO*    CLOUDY    89  72  57 SW5       29.97S HX  95
LOGANSPORT*    PTSUNNY   88  73  62 SW6       29.98F HX  96
ROCHESTER*     PTSUNNY   90  79  70 SW8       29.97F HX 105
WARSAW*        MOSUNNY   88  72  58 CALM      29.97S
ANGOLA*          N/A     90  84  84 N6        29.98F HX 115
FORT WAYNE     PTSUNNY   91  72  53 W6        29.97F HX  98
HUNTINGTON*    CLOUDY   N/A N/A N/A CALM      29.97F
PERU/GRISSOM   PTSUNNY   89  74  61 W6        29.97F HX  99
MARION*        SUNNY     88  72  59 CALM      29.99F HX  95

$$
INZ028>050-232200-
CENTRAL INDIANA

CITY           SKY/WX    TMP DP  RH WIND       PRES   REMARKS
LAFAYETTE      MOSUNNY   89  75  63 SW6       29.96F HX  99
KOKOMO*        MOSUNNY   90  73  58 S6        29.97F HX  98
MUNCIE*        SUNNY     91  73  55 NW6       29.99F HX  99
INDIANAPOLIS   PTSUNNY   90  73  57 W3        29.99F HX  98

$$
MIZ043>046-050>051-056>058-064>065-071>073-077>080-232200-
SOUTHWEST LOWER MICHIGAN

CITY           SKY/WX    TMP DP  RH WIND       PRES   REMARKS
BATTLE CREEK   MOSUNNY   87  66  49 VRB5      29.99F
BENTON HARBOR  PTSUNNY   88  72  58 NW6       29.95F
COLDWATER*     MOSUNNY   88  61  39 CALM      29.98F
HOLLAND        SUNNY     91  70  49 VRB3      29.97F HX  96
GRAND RAPIDS   PTSUNNY   92  61  35 SE6       29.96F
KALAMAZOO      MOSUNNY   91  58  32 S6        29.97F
STURGIS*       MOSUNNY   90  62  39 NE3       29.97F
THREE RIVERS*  FAIR      92  57  30 SE6       29.97F

$$
OHZ001>008-015>018-024>025-232200-
NORTHWEST OHIO

CITY           SKY/WX    TMP DP  RH WIND       PRES   REMARKS
WAUSEON*       FAIR      91  68  46 CALM      29.98F HX  95
DEFIANCE       PTSUNNY   93  64  38 NW5       29.96F
FINDLAY        MOSUNNY   90  69  50 NW5       29.97F
TOLEDO EXPRESS SUNNY     90  69  50 N3        29.96F
TOLEDO METCALF SUNNY     93  65  39 NE7       29.96F HX  95
LIMA           CLOUDY    90  73  57 CALM      29.99S HX  98

$$
AND FOR LAKE MICHIGAN COASTAL AND OPEN LAKE BUOY OBSERVATIONS

STATION/POSITION TEMP    WIND        PRES    VSBY  WAVE
                 AIR SEA DIR/SP/G                  HT/PER
                 (F)     (DEG/KT/KT) (MB)    (MI)  (FT/S)
CALUMET HARBOR    82      80/  8/ 11 1013.9F
MICHIGAN CITY     80      10/  7/  7   N/A
BURNS HARBOR      82      70/  6/  7 1014.9F
SAINT JOSEPH      84     330/  2/  2 1015.2F
SOUTH LAKE BUOY   78 78   70/  4/  4 1013.5F         0
4 MI NW BRIDGMAN  81     320/  2/  4 1013.8F         1
MICHIGAN CITY     80 79   40/  6/  8   N/A           1

$$
&&




USA.gov is the U.S. government's official web portal to all federal, state and local government web resources and services.